Flight Track Log - Related Links

Times and Time Zones

All times are in EST time to prevent confusion due to time zone crossing. See the OPT332 flight status page for this flight to view local times or setup timezone preferences in your user account.


Time Position Orientation Groundspeed Altitude Reporting Facility
EST Latitude Longitude Course Direction KTS MPH feet Rate Location/Type
Sat 09:06:06 AM 29.6501 -95.2367 28° Northeast 236 272 3,500  Level FlightAware ADS-B
Sat 09:06:19 AM 29.6613 -95.2340 12° North 255 293 4,000 2,471 Climbing FlightAware ADS-B
Sat 09:06:23 AM 29.6656 -95.2343 357° North 256 295 4,200 3,333 Climbing FlightAware ADS-B
Sat 09:06:28 AM 29.6714 -95.2358 347° North 256 295 4,500 2,667 Climbing FlightAware ADS-B
Sat 09:06:32 AM 29.6764 -95.2379 340° North 261 300 4,600 1,333 Climbing FlightAware ADS-B
Sat 09:06:37 AM 29.6819 -95.2417 329° Northwest 265 305 4,700 1,500 Climbing FlightAware ADS-B
Sat 09:06:40 AM 29.6848 -95.2444 321° Northwest 266 306 4,800 1,000 Climbing FlightAware ADS-B
Sat 09:06:43 AM 29.6875 -95.2474 316° Northwest 268 308 4,800 750 Level FlightAware ADS-B
Sat 09:06:48 AM 29.6913 -95.2531 308° West 269 310 4,900 2,000 Climbing FlightAware ADS-B
Sat 09:06:55 AM 29.6954 -95.2610 301° West 264 304 5,200 3,600 Climbing FlightAware ADS-B
Sat 09:06:58 AM 29.6975 -95.2653 299° West 260 299 5,500 5,455 Climbing FlightAware ADS-B
Sat 09:07:06 AM 29.7031 -95.2779 297° West 247 284 6,200 4,125 Climbing FlightAware ADS-B
Sat 09:07:14 AM 29.7058 -95.2840 297° West 247 284 6,600 3,600 Climbing FlightAware ADS-B
Sat 09:07:26 AM 29.7127 -95.2999 296° West 255 293 7,400 3,000 Climbing FlightAware ADS-B
Sat 09:07:30 AM 29.7140 -95.3031 296° West 254 292 7,400 3,474 Level FlightAware ADS-B
Sat 09:07:45 AM 29.7222 -95.3216 297° West 249 287 8,500 4,941 Climbing FlightAware ADS-B
Sat 09:07:47 AM 29.7230 -95.3233 297° West 247 284 8,800 4,500 Climbing FlightAware ADS-B
Sat 09:08:01 AM 29.7304 -95.3397 298° West 240 276 9,700 3,600 Climbing FlightAware ADS-B
Sat 09:08:27 AM 29.7448 -95.3699 299° West 244 281 11,200 3,200 Climbing FlightAware ADS-B
Sat 09:08:31 AM 29.7468 -95.3740 299° West 244 281 11,300 2,400 Climbing FlightAware ADS-B
Sat 09:08:47 AM 29.7541 -95.3916 296° West 242 278 12,000 2,348 Climbing FlightAware ADS-B
Sat 09:09:17 AM 29.7611 -95.4306 282° West 248 285 13,100 2,550 Climbing FlightAware ADS-B
Sat 09:09:27 AM 29.7637 -95.4442 282° West 247 284 13,700 1,688 Climbing FlightAware ADS-B
Sat 09:09:49 AM 29.7694 -95.4726 283° West 262 302 14,000 486 Climbing FlightAware ADS-B
Sat 09:10:04 AM 29.7742 -95.4964 283° West 267 307 14,000  Level FlightAware ADS-B
Sat 09:10:20 AM 29.7783 -95.5162 283° West 275 316 14,000  Level FlightAware ADS-B
Sat 09:10:51 AM 29.7874 -95.5603 283° West 278 320 14,000  Level FlightAware ADS-B
Sat 09:11:22 AM 29.7966 -95.6052 283° West 282 325 14,000  Level FlightAware ADS-B
Sat 09:11:27 AM 29.7990 -95.6164 284° West 282 325 14,000  Level FlightAware ADS-B
Sat 09:11:52 AM 29.8059 -95.6504 283° West 281 323 14,000  Level FlightAware ADS-B
Sat 09:12:12 AM 29.8125 -95.6826 283° West 281 323 14,000  Level FlightAware ADS-B
Sat 09:12:22 AM 29.8148 -95.6941 283° West 280 322 14,000  Level FlightAware ADS-B
Sat 09:12:54 AM 29.8240 -95.7387 283° West 272 313 14,000  Level FlightAware ADS-B
Sat 09:13:24 AM 29.8326 -95.7811 283° West 270 311 14,000  Level FlightAware ADS-B
Sat 09:13:48 AM 29.8396 -95.8155 283° West 271 312 14,000  Level FlightAware ADS-B
Sat 09:14:11 AM 29.8461 -95.8478 283° West 272 313 14,000  Level FlightAware ADS-B
Sat 09:14:42 AM 29.8550 -95.8916 283° West 274 315 14,000  Level FlightAware ADS-B
Sat 09:15:13 AM 29.8624 -95.9282 283° West 274 315 14,000  Level FlightAware ADS-B
Sat 09:15:39 AM 29.8713 -95.9720 283° West 275 316 14,000  Level FlightAware ADS-B
Sat 09:16:09 AM 29.8800 -96.0149 283° West 275 316 14,000  Level FlightAware ADS-B
Sat 09:16:39 AM 29.8887 -96.0584 283° West 275 316 14,000  Level FlightAware ADS-B
Sat 09:17:09 AM 29.8975 -96.1016 283° West 276 318 14,000  Level FlightAware ADS-B
Sat 09:17:40 AM 29.9061 -96.1450 283° West 277 319 14,000  Level FlightAware ADS-B
Sat 09:18:10 AM 29.9150 -96.1892 283° West 279 321 14,000  Level FlightAware ADS-B
Sat 09:18:40 AM 29.9237 -96.2329 283° West 279 321 14,000  Level FlightAware ADS-B
Sat 09:19:11 AM 29.9325 -96.2769 283° West 279 321 14,000  Level FlightAware ADS-B
Sat 09:19:41 AM 29.9413 -96.3208 283° West 280 322 14,000  Level FlightAware ADS-B
Sat 09:20:11 AM 29.9500 -96.3648 283° West 282 325 14,000  Level FlightAware ADS-B
Sat 09:20:42 AM 29.9590 -96.4102 283° West 283 326 14,000  Level FlightAware ADS-B
Sat 09:21:12 AM 29.9680 -96.4551 283° West 284 327 14,000  Level FlightAware ADS-B
Sat 09:21:43 AM 29.9771 -96.5013 283° West 286 329 14,000  Level FlightAware ADS-B
Sat 09:22:14 AM 29.9861 -96.5470 283° West 287 330 14,000  Level FlightAware ADS-B
Sat 09:22:45 AM 29.9952 -96.5935 283° West 294 338 14,000  Level FlightAware ADS-B
Sat 09:23:16 AM 30.0046 -96.6412 283° West 299 344 14,000  Level FlightAware ADS-B
Sat 09:23:46 AM 30.0143 -96.6890 283° West 303 349 14,000  Level FlightAware ADS-B
Sat 09:24:16 AM 30.0236 -96.7368 283° West 305 351 14,000 -500 Level FlightAware ADS-B
Sat 09:24:46 AM 30.0329 -96.7847 283° West 304 350 13,500 -1,333 Descending FlightAware ADS-B
Sat 09:25:19 AM 30.0428 -96.8359 283° West 296 341 12,600 -1,556 Descending FlightAware ADS-B
Sat 09:25:40 AM 30.0492 -96.8686 283° West 290 334 12,100 -1,355 Descending FlightAware ADS-B
Sat 09:25:50 AM 30.0529 -96.8824 287° West 287 330 11,900 -1,286 Descending FlightAware ADS-B
Sat 09:25:54 AM 30.0543 -96.8869 290° West 288 331 11,800 -1,600 Descending FlightAware ADS-B
Sat 09:26:20 AM 30.0663 -96.9256 290° West 279 321 11,100 -1,474 Descending FlightAware ADS-B
Sat 09:26:51 AM 30.0793 -96.9694 289° West 278 320 10,400 -1,469 Descending FlightAware ADS-B
Sat 09:27:09 AM 30.0868 -96.9942 289° West 272 313 9,900 -1,500 Descending FlightAware ADS-B
Sat 09:27:27 AM 30.0940 -97.0181 289° West 267 307 9,500 -1,371 Descending FlightAware ADS-B
Sat 09:27:44 AM 30.1008 -97.0409 289° West 263 303 9,100 -1,543 Descending FlightAware ADS-B
Sat 09:28:02 AM 30.1081 -97.0651 289° West 265 305 8,600 -1,588 Descending FlightAware ADS-B
Sat 09:28:18 AM 30.1147 -97.0874 289° West 263 303 8,200 -1,405 Descending FlightAware ADS-B
Sat 09:29:53 AM 30.1515 -97.2104 289° West 264 304 6,000 -1,065 Descending FlightAware ADS-B
Sat 09:30:22 AM 30.1641 -97.2527 289° West 269 310 6,000 -85 Level FlightAware ADS-B
Sat 09:31:04 AM 30.1854 -97.3042 296° West 274 315 5,900 -590 Descending FlightAware ADS-B
Sat 09:31:23 AM 30.2027 -97.3278 310° West 280 322 5,400 -1,500 Descending FlightAware ADS-B
Sat 09:31:40 AM 30.2156 -97.3451 311° West 279 321 5,000 -1,500 Descending FlightAware ADS-B
Sat 09:32:03 AM 30.2358 -97.3722 311° West 272 313 4,400 -1,500 Descending FlightAware ADS-B
Sat 09:32:24 AM 30.2520 -97.3933 312° West 264 304 3,900 -1,463 Descending FlightAware ADS-B
Sat 09:32:44 AM 30.2688 -97.4149 312° West 261 300 3,400 -1,231 Descending FlightAware ADS-B
Sat 09:33:03 AM 30.2842 -97.4341 313° West 254 292 3,100 -600 Descending FlightAware ADS-B
Sat 09:33:24 AM 30.2988 -97.4526 312° West 250 288 3,000 -194 Descending FlightAware ADS-B
Sat 09:33:34 AM 30.3095 -97.4662 312° West 251 289 3,000  Level FlightAware ADS-B
Sat 09:33:44 AM 30.3161 -97.4747 312° West 251 289 3,000  Level FlightAware ADS-B
Sat 09:33:50 AM 30.3225 -97.4829 312° West 249 287 3,000  Level FlightAware ADS-B
Sat 09:34:03 AM 30.3299 -97.4925 312° West 248 285 3,000  Level FlightAware ADS-B
Sat 09:34:06 AM 30.3349 -97.4989 312° West 247 284 3,000  Level FlightAware ADS-B
Sat 09:34:22 AM 30.3470 -97.5145 312° West 244 281 3,000  Level FlightAware ADS-B
Sat 09:34:24 AM 30.3479 -97.5156 313° West 242 278 3,000  Level FlightAware ADS-B
Sat 09:34:30 AM 30.3526 -97.5220 311° West 237 273 3,000  Level FlightAware ADS-B
Sat 09:34:34 AM 30.3550 -97.5262 304° West 228 262 3,000  Level FlightAware ADS-B
Sat 09:34:37 AM 30.3565 -97.5298 296° West 218 251 3,000 -600 Level FlightAware ADS-B
Sat 09:34:44 AM 30.3581 -97.5345 291° West 212 244 2,900 -889 Descending FlightAware ADS-B
Sat 09:35:04 AM 30.3647 -97.5570 289° West 202 232 2,600 -585 Descending FlightAware ADS-B
Sat 09:35:25 AM 30.3702 -97.5753 289° West 182 209 2,500 -200 Descending FlightAware ADS-B
Sat 09:35:34 AM 30.3737 -97.5861 291° West 210 242 2,500  Level FlightAware ADS-B
Sat 09:35:45 AM 30.3761 -97.5936 290° West 170 196 2,500  Level FlightAware ADS-B
Sat 09:36:05 AM 30.3788 -97.6109 280° West 151 174 2,500  Level FlightAware ADS-B
Sat 09:36:25 AM 30.3774 -97.6274 264° West 137 158 2,500  Level FlightAware ADS-B
Sat 09:36:34 AM 30.3742 -97.6328 235° Southwest 123 142 2,500  Level FlightAware ADS-B
Sat 09:36:43 AM 30.3704 -97.6354 211° Southwest 120 138 2,500  Level FlightAware ADS-B
Sat 09:37:05 AM 30.3589 -97.6416 205° Southwest 123 142 2,500  Level FlightAware ADS-B
Sat 09:37:15 AM 30.3537 -97.6449 209° Southwest 124 143 2,500  Level FlightAware ADS-B
Sat 09:37:25 AM 30.3495 -97.6500 226° Southwest 128 147 2,500  Level FlightAware ADS-B
Sat 09:37:44 AM 30.3432 -97.6587 230° Southwest 126 145 2,500  Level FlightAware ADS-B
Sat 09:37:55 AM 30.3376 -97.6626 211° Southwest 120 138 2,500  Level FlightAware ADS-B
Sat 09:38:05 AM 30.3315 -97.6622 177° South 119 137 2,500  Level FlightAware ADS-B
Sat 09:38:09 AM 30.3286 -97.6617 172° South 121 139 2,500  Level FlightAware ADS-B
Sat 09:38:25 AM 30.3200 -97.6610 176° South 118 136 2,500  Level FlightAware ADS-B
Sat 09:38:29 AM 30.3181 -97.6610 179° South 121 139 2,500  Level FlightAware ADS-B
Sat 09:38:35 AM 30.3148 -97.6609 179° South 111 128 2,500  Level FlightAware ADS-B
Sat 09:38:45 AM 30.3112 -97.6607 177° South 95 109 2,500  Level FlightAware ADS-B
Sat 09:38:57 AM 30.3052 -97.6605 178° South 95 109 2,500 -316 Level FlightAware ADS-B
Sat 09:39:04 AM 30.3028 -97.6605 180° South 85 98 2,400 -429 Descending FlightAware ADS-B
Sat 09:39:25 AM 30.2949 -97.6603 179° South 87 100 2,300 -439 Descending FlightAware ADS-B
Sat 09:39:45 AM 30.2861 -97.6601 179° South 86 99 2,100 -462 Descending FlightAware ADS-B
Sat 09:40:04 AM 30.2784 -97.6599 179° South 86 99 2,000 -450 Descending FlightAware ADS-B
Sat 09:40:25 AM 30.2704 -97.6597 179° South 85 98 1,800 -439 Descending FlightAware ADS-B
Sat 09:40:45 AM 30.2617 -97.6595 179° South 93 107 1,700 -450 Descending FlightAware ADS-B
Sat 09:41:05 AM 30.2529 -97.6593 179° South 97 112 1,500 -600 Descending FlightAware ADS-B
Sat 09:41:45 AM 30.2344 -97.6586 178° South 100 115 1,100 -500 Descending FlightAware ADS-B
Sat 09:42:05 AM 30.2251 -97.6583 178° South 102 117 1,000 100 Descending FlightAware ADS-B
Sat 09:42:45 AM 30.2384 -97.6588 358° North 99 114 1,200 300 Climbing FlightAware ADS-B

Login

Don't have an account? Register now (free) for customized features, flight alerts, and more!